Weather reports worldwide

Advertisment
Cagliari/Elmas, Italy (16560): temperature & dewpoint: 15.01.2021 05:00:00 - 21.01.2021 05:00:00 (CET)Cagliari/Elmas, Italy (16560): wind speed: 15.01.2021 05:00:00 - 21.01.2021 05:00:00 (CET)Cagliari/Elmas, Italy (16560): wind direction: 15.01.2021 05:00:00 - 21.01.2021 05:00:00 (CET)Cagliari/Elmas, Italy (16560): reduced air pressure: 15.01.2021 05:00:00 - 21.01.2021 05:00:00 (CET)Cagliari/Elmas, Italy (16560): visibility: 15.01.2021 05:00:00 - 21.01.2021 05:00:00 (CET)Cagliari/Elmas, Italy (16560): precipitation: 15.01.2021 05:00:00 - 21.01.2021 05:00:00 (CET)
Date & Time tt [°C] td [°C] ff [km/h] ff [kn] dd ppp [hPa] vv [km] rr [mm]
21.01.2021 05:00:00 8,0 8,0 4 2 - - 10 -
21.01.2021 04:00:00 7,6 7,6 8 4 N 1016,5 - 0,0
21.01.2021 03:00:00 7,0 7,0 9 5 N - 10 -
21.01.2021 02:00:00 - - - - - - - -
21.01.2021 01:00:00 11,1 9,4 9 5 SE 1017,2 10 -
21.01.2021 00:00:00 12,0 11,0 11 6 SSE - 10 -
20.01.2021 23:00:00 11,0 10,0 13 7 SE - 10 -
20.01.2021 22:00:00 11,1 10,2 13 7 SE 1018,3 10 0,0
20.01.2021 21:00:00 11,0 11,0 11 6 SE - 10 -
20.01.2021 20:00:00 11,0 11,0 9 5 SE - 10 -
20.01.2021 19:00:00 11,7 11,2 13 7 SE 1019,1 10 -
20.01.2021 18:00:00 13,0 11,0 16 9 SSE - 10 -
20.01.2021 17:00:00 14,0 11,0 16 9 SSE - 10 -
20.01.2021 16:00:00 14,4 11,3 18 10 SSE 1019,2 10 0,0
20.01.2021 15:00:00 15,0 11,0 18 10 SSE - 10 -
20.01.2021 14:00:00 15,0 11,0 18 10 SSE - 10 -
20.01.2021 13:00:00 14,9 10,4 13 7 S 1020,8 10 -
20.01.2021 12:00:00 13,0 8,0 5 3 SW - 10 -
20.01.2021 11:00:00 9,0 8,0 4 2 - - 9 -
20.01.2021 10:00:00 5,8 5,8 8 4 N 1023,3 9 0,0
20.01.2021 09:00:00 3,0 3,0 5 3 N - 9 -
20.01.2021 08:00:00 2,0 2,0 11 6 N - 9 -
20.01.2021 07:00:00 2,1 2,1 11 6 N 1023,5 10 -
20.01.2021 06:00:00 2,0 2,0 8 4 N - 10 -
20.01.2021 05:00:00 3,0 3,0 11 6 N - 9 -
20.01.2021 04:00:00 2,5 2,5 9 5 NNW 1024,5 9 0,0
20.01.2021 03:00:00 - - - - - - - -
20.01.2021 02:00:00 3,0 3,0 9 5 N - 10 -
20.01.2021 01:00:00 3,7 3,7 9 5 NNW 1026,1 10 -
20.01.2021 00:00:00 5,0 5,0 5 3 NNW - 10 -
19.01.2021 23:00:00 5,0 5,0 4 2 NNE - 10 -
19.01.2021 22:00:00 5,7 5,5 9 5 N 1026,9 10 0,0
19.01.2021 21:00:00 7,0 7,0 4 2 NE - 10 -
19.01.2021 20:00:00 9,0 8,0 5 3 NW - 10 -
19.01.2021 19:00:00 9,5 6,7 4 2 WSW 1026,8 10 -
19.01.2021 18:00:00 11,0 7,0 8 4 W - 10 -
19.01.2021 17:00:00 12,0 7,0 11 6 N - 10 -
19.01.2021 16:00:00 13,6 7,2 13 7 N 1026,3 10 0,0
19.01.2021 15:00:00 13,0 7,0 5 3 W - 10 -
19.01.2021 14:00:00 14,0 7,0 8 4 WNW - 10 -
19.01.2021 13:00:00 13,9 5,7 9 5 N 1027,2 10 -
19.01.2021 12:00:00 12,0 6,0 4 2 - - 10 -
19.01.2021 11:00:00 9,0 8,0 5 3 W - 10 -
19.01.2021 10:00:00 7,5 7,3 4 2 - 1028,4 10 0,0
19.01.2021 09:00:00 7,0 7,0 2 1 - - 10 -
19.01.2021 08:00:00 5,0 5,0 2 1 - - 10 -
19.01.2021 07:00:00 4,0 4,0 2 1 ENE 1027,3 10 -
19.01.2021 06:00:00 5,0 5,0 0 0 N - 10 -
19.01.2021 05:00:00 5,0 5,0 4 2 - - 10 -
19.01.2021 04:00:00 5,1 5,1 2 1 N 1026,9 - 0,0
19.01.2021 03:00:00 6,0 6,0 8 4 N - 10 -
19.01.2021 02:00:00 6,0 6,0 8 4 NNE - 10 -
19.01.2021 01:00:00 5,8 5,5 8 4 NNE 1026,8 10 -
19.01.2021 00:00:00 7,0 6,0 9 5 N - 10 -
18.01.2021 23:00:00 8,0 7,0 9 5 N - 10 -
18.01.2021 22:00:00 8,6 7,3 9 5 N 1026,7 10 0,0
18.01.2021 21:00:00 8,0 6,0 8 4 NNE - 10 -
18.01.2021 20:00:00 9,0 6,0 5 3 NE - 10 -
18.01.2021 19:00:00 9,4 5,9 5 3 ENE 1025,7 10 -
18.01.2021 18:00:00 12,0 6,0 4 2 - - 10 -
18.01.2021 17:00:00 13,0 7,0 13 7 S - 10 -
18.01.2021 16:00:00 13,2 6,2 13 7 S 1024,4 10 0,0
18.01.2021 15:00:00 14,0 4,0 11 6 S - 10 -
18.01.2021 14:00:00 14,0 3,0 4 2 - - 10 -
18.01.2021 13:00:00 13,5 2,8 5 3 W 1024,3 10 -
18.01.2021 12:00:00 12,0 5,0 8 4 WNW - 10 -
18.01.2021 11:00:00 11,0 6,0 9 5 WNW - 10 -
18.01.2021 10:00:00 8,8 5,6 9 5 NW 1024,4 10 0,0
18.01.2021 09:00:00 6,0 5,0 4 2 - - 10 -
18.01.2021 08:00:00 5,0 5,0 9 5 N - 10 -
18.01.2021 07:00:00 6,7 5,9 8 4 NNW 1021,9 10 -
18.01.2021 06:00:00 7,0 6,0 8 4 NNE - 10 -
18.01.2021 05:00:00 8,0 7,0 11 6 NE - 10 -
18.01.2021 04:00:00 9,8 7,5 16 9 NNW 1019,4 10 0,0
18.01.2021 03:00:00 10,0 6,0 16 9 NNW - 10 -
18.01.2021 02:00:00 11,0 5,0 13 7 NNW - 10 -
18.01.2021 01:00:00 11,3 4,2 34 18 NNW 1017,1 10 -
18.01.2021 00:00:00 12,0 4,0 41 22 N - 10 -
17.01.2021 23:00:00 12,0 5,0 44 24 NNW - 10 -
17.01.2021 22:00:00 12,6 6,3 37 20 N 1015,1 10 0,0
17.01.2021 21:00:00 14,0 7,0 37 20 NNW - 10 -
17.01.2021 20:00:00 14,0 7,0 35 19 NNW - 10 -
17.01.2021 19:00:00 14,0 8,5 35 19 NNW 1014,7 10 -
17.01.2021 18:00:00 14,0 8,0 42 23 NNW - 10 -
17.01.2021 17:00:00 14,0 9,0 35 19 NNW - 10 -
17.01.2021 16:00:00 14,9 9,3 34 18 NW 1015,5 10 0,0
17.01.2021 15:00:00 15,0 9,0 31 17 NNW - 10 -
17.01.2021 14:00:00 14,0 8,0 39 21 NW - 10 -
17.01.2021 13:00:00 14,3 8,1 37 20 NW 1017,1 10 -
17.01.2021 12:00:00 14,0 8,0 34 18 NW - 10 -
17.01.2021 11:00:00 13,0 8,0 37 20 WNW - 10 -
17.01.2021 10:00:00 12,5 7,6 28 15 WNW 1019,7 10 0,0
17.01.2021 09:00:00 7,0 6,0 13 7 NNE - 10 -
17.01.2021 08:00:00 5,0 5,0 5 3 E - 10 -
17.01.2021 07:00:00 4,5 4,5 9 5 NNE 1021,0 10 -
17.01.2021 06:00:00 3,0 3,0 11 6 N - 10 -
17.01.2021 05:00:00 4,0 4,0 9 5 N - 10 -
17.01.2021 04:00:00 4,5 4,5 8 4 N 1021,5 10 0,0
17.01.2021 03:00:00 - - - - - - - -
17.01.2021 02:00:00 7,0 7,0 8 4 NNE - 10 -
17.01.2021 01:00:00 7,1 6,6 8 4 NNE 1022,8 10 -
17.01.2021 00:00:00 6,0 5,0 9 5 N - 10 -
16.01.2021 23:00:00 5,0 4,0 5 3 NE - 10 -
16.01.2021 22:00:00 6,0 3,9 9 5 NNE 1022,7 10 0,0
16.01.2021 21:00:00 7,0 4,0 9 5 NNE - 10 -
16.01.2021 20:00:00 9,0 4,0 15 8 NNW - 10 -
16.01.2021 19:00:00 9,3 4,0 13 7 NW 1021,3 10 -
16.01.2021 18:00:00 10,0 4,0 15 8 NNW - 10 -
16.01.2021 17:00:00 12,0 4,0 18 10 NNW - 10 -
16.01.2021 16:00:00 12,7 4,3 21 11 NNW 1018,8 10 0,0
16.01.2021 15:00:00 13,0 4,0 16 9 NNW - 10 -
16.01.2021 14:00:00 13,0 6,0 15 8 NW - 10 -
16.01.2021 13:00:00 12,2 6,6 13 7 NNW 1018,4 10 -
16.01.2021 12:00:00 11,0 6,0 13 7 NW - 10 -
16.01.2021 11:00:00 11,0 6,0 11 6 NW - 10 -
16.01.2021 10:00:00 9,6 7,5 5 3 NNW 1018,1 10 0,0
16.01.2021 09:00:00 - - - - - - - -
16.01.2021 08:00:00 6,0 6,0 9 5 NNE - 10 -
16.01.2021 07:00:00 5,9 5,8 11 6 N 1016,3 10 -
16.01.2021 06:00:00 9,0 7,0 13 7 NW - 10 -
16.01.2021 05:00:00 7,0 6,0 9 5 N - 10 -
16.01.2021 04:00:00 7,6 7,0 8 4 NNW 1015,7 10 0,0
16.01.2021 03:00:00 9,0 7,0 11 6 NNW - 10 -
16.01.2021 02:00:00 8,0 7,0 8 4 N - 10 -
16.01.2021 01:00:00 8,2 7,5 9 5 NNW 1016,1 10 -
16.01.2021 00:00:00 9,0 8,0 16 9 NNW - 10 -
15.01.2021 23:00:00 10,0 8,0 26 14 N - 10 -
15.01.2021 22:00:00 9,8 6,6 15 8 N 1015,7 10 0,0
15.01.2021 21:00:00 10,0 7,0 18 10 NNW - 10 -
15.01.2021 20:00:00 10,0 6,0 13 7 NNW - 10 -
15.01.2021 19:00:00 11,3 6,5 24 13 NNW 1015,2 10 -
15.01.2021 18:00:00 12,0 7,0 29 16 NNW - 8 -
15.01.2021 17:00:00 12,0 7,0 29 16 NNW - 10 -
15.01.2021 16:00:00 12,5 8,0 35 19 N 1013,7 6 0,0
15.01.2021 15:00:00 14,0 7,0 41 22 NNW - 10 -
15.01.2021 14:00:00 14,0 7,0 44 24 NNW - 10 -
15.01.2021 13:00:00 14,1 7,3 34 18 NNW 1013,2 10 -
15.01.2021 12:00:00 14,0 7,0 37 20 NNW - 10 -
15.01.2021 11:00:00 14,0 8,0 31 17 NNW - 10 -
15.01.2021 10:00:00 13,4 8,1 22 12 NW 1014,4 10 0,0
15.01.2021 09:00:00 13,0 7,0 22 12 NNW - 10 -
15.01.2021 08:00:00 12,0 8,0 16 9 NNW - 10 -
15.01.2021 07:00:00 11,9 7,9 18 10 NNW 1013,8 10 -
15.01.2021 06:00:00 13,0 9,0 22 12 NNW - 10 -
15.01.2021 05:00:00 13,0 9,0 15 8 NNW - 10 -

tt = temperature
td = dewpoint
ff = wind speed
dd = wind direction
ppp = reduced air pressure
vv = visibility
rr = precipitation

Next stations